| time (UTC) | temp C | wind direction | speed KPH | gust KPH | rain 1hr cm | rain 24hr cm | rain mn cm | humidity % | barometer mb |
| 20260504032705 | 11 | 240 | 0.0 | 1.6 | 0.00 | 0.00 | 0.00 | 91 | 1011.0 |
| 20260504032017 | 11 | 239 | 0.0 | 3.2 | 0.00 | 0.00 | 0.00 | 91 | 1011.1 |
| 20260504031114 | 11 | 240 | 0.0 | 4.8 | 0.00 | 0.00 | 0.00 | 91 | 1011.1 |
| 20260504030005 | 11 | 240 | 0.0 | 3.2 | 0.00 | 0.00 | 0.00 | 91 | 1011.1 |
| 20260504025405 | 11 | 239 | 0.0 | 4.8 | 0.00 | 0.00 | 0.00 | 90 | 1011.1 |
| 20260504024505 | 11 | 240 | 0.0 | 3.2 | 0.00 | 0.00 | 0.00 | 90 | 1011.0 |
| 20260504023606 | 12 | 240 | 0.0 | 6.4 | 0.00 | 0.00 | 0.00 | 90 | 1011.0 |
| 20260504022703 | 12 | 237 | 0.0 | 6.4 | 0.00 | 0.00 | 0.00 | 90 | 1011.0 |
| 20260504022013 | 12 | 236 | 0.0 | 3.2 | 0.00 | 0.00 | 0.00 | 89 | 1010.9 |
| 20260504020905 | 12 | 236 | 0.0 | 1.6 | 0.00 | 0.00 | 0.00 | 89 | 1010.8 |
| 20260504020005 | 12 | 236 | 0.0 | 3.2 | 0.00 | 0.00 | 0.00 | 89 | 1010.7 |
| 20260504015403 | 12 | 236 | 0.0 | 4.8 | 0.00 | 0.00 | 0.00 | 89 | 1010.8 |
| 20260504014503 | 12 | 237 | 0.0 | 4.8 | 0.00 | 0.00 | 0.00 | 88 | 1010.7 |
| 20260504013606 | 12 | 221 | 0.0 | 8.0 | 0.00 | 0.00 | 0.00 | 88 | 1010.8 |
| 20260504012703 | 12 | 189 | 0.0 | 6.4 | 0.00 | 0.00 | 0.00 | 87 | 1010.7 |
| 20260504011806 | 12 | 251 | 0.0 | 4.8 | 0.00 | 0.00 | 0.00 | 87 | 1010.7 |
| 20260504010903 | 12 | 224 | 1.6 | 9.7 | 0.00 | 0.00 | 0.00 | 87 | 1010.8 |
| 20260504010005 | 12 | 189 | 0.0 | 4.8 | 0.00 | 0.00 | 0.00 | 86 | 1010.8 |
| 20260504005405 | 12 | 210 | 0.0 | 4.8 | 0.00 | 0.00 | 0.00 | 86 | 1010.8 |
| 20260504004505 | 12 | 249 | 0.0 | 6.4 | 0.00 | 0.00 | 0.00 | 86 | 1010.8 |
| 20260504003605 | 12 | 252 | 0.0 | 1.6 | 0.00 | 0.00 | 0.00 | 86 | 1010.6 |
| 20260504002704 | 12 | 252 | 0.0 | 4.8 | 0.00 | 0.00 | 0.00 | 86 | 1010.6 |
| 20260504001804 | 13 | 259 | 0.0 | 3.2 | 0.00 | 0.00 | 0.00 | 85 | 1010.6 |
| 20260504001117 | 13 | 266 | 0.0 | 3.2 | 0.00 | 0.00 | 0.00 | 85 | 1010.4 |
| 20260504000003 | 13 | 231 | 0.0 | 6.4 | 0.00 | 0.00 | 0.00 | 84 | 1010.4 |
| 20260503235405 | 13 | 194 | 0.0 | 3.2 | 0.00 | 0.00 | 0.00 | 84 | 1010.3 |
| 20260503234504 | 13 | 194 | 0.0 | 3.2 | 0.00 | 0.00 | 0.00 | 84 | 1010.4 |
| 20260503233603 | 13 | 197 | 0.0 | 4.8 | 0.00 | 0.00 | 0.00 | 84 | 1010.4 |
| 20260503232705 | 13 | 234 | 0.0 | 3.2 | 0.00 | 0.00 | 0.00 | 84 | 1010.3 |
| 20260503231805 | 13 | 231 | 1.6 | 6.4 | 0.00 | 0.00 | 0.00 | 83 | 1010.3 |
| 20260503230903 | 13 | 180 | 1.6 | 6.4 | 0.00 | 0.03 | 0.00 | 83 | 1010.3 |
| 20260503230005 | 13 | 215 | 1.6 | 6.4 | 0.00 | 0.03 | 0.00 | 83 | 1010.3 |
| 20260503225403 | 13 | 204 | 1.6 | 4.8 | 0.00 | 0.03 | 0.03 | 83 | 1010.3 |
| 20260503224503 | 13 | 208 | 0.0 | 4.8 | 0.00 | 0.03 | 0.03 | 83 | 1010.3 |
| 20260503223603 | 13 | 246 | 0.0 | 9.7 | 0.00 | 0.03 | 0.03 | 83 | 1010.2 |
| 20260503222705 | 13 | 227 | 0.0 | 9.7 | 0.00 | 0.03 | 0.03 | 83 | 1010.1 |
| 20260503221804 | 14 | 237 | 0.0 | 6.4 | 0.00 | 0.03 | 0.03 | 83 | 1010.2 |
| 20260503221113 | 14 | 233 | 1.6 | 6.4 | 0.00 | 0.03 | 0.03 | 82 | 1010.2 |
| 20260503220003 | 14 | 206 | 1.6 | 6.4 | 0.00 | 0.03 | 0.03 | 82 | 1010.2 |
| 20260503215403 | 14 | 189 | 1.6 | 9.7 | 0.00 | 0.03 | 0.03 | 82 | 1010.1 |
| 20260503214504 | 14 | 179 | 1.6 | 4.8 | 0.00 | 0.03 | 0.03 | 82 | 1010.0 |
| 20260503213605 | 14 | 176 | 0.0 | 4.8 | 0.00 | 0.03 | 0.03 | 81 | 1010.0 |
| 20260503212705 | 14 | 175 | 0.0 | 3.2 | 0.00 | 0.03 | 0.03 | 80 | 1009.9 |
| 20260503211805 | 15 | 175 | 0.0 | 3.2 | 0.00 | 0.03 | 0.03 | 79 | 1009.9 |
| 20260503210904 | 15 | 175 | 0.0 | 4.8 | 0.00 | 0.03 | 0.03 | 78 | 1009.7 |
| 20260503210006 | 15 | 174 | 0.0 | 4.8 | 0.00 | 0.03 | 0.03 | 77 | 1009.6 |
| 20260503205405 | 15 | 173 | 0.0 | 4.8 | 0.00 | 0.03 | 0.03 | 77 | 1009.5 |
| 20260503204503 | 15 | 170 | 0.0 | 3.2 | 0.00 | 0.03 | 0.03 | 76 | 1009.5 |
| 20260503203817 | 15 | 169 | 0.0 | 3.2 | 0.00 | 0.03 | 0.03 | 75 | 1009.5 |
| 20260503202703 | 15 | 187 | 1.6 | 6.4 | 0.00 | 0.03 | 0.03 | 74 | 1009.3 |
| 20260503201806 | 16 | 238 | 0.0 | 4.8 | 0.00 | 0.03 | 0.03 | 72 | 1009.2 |
| 20260503200905 | 16 | 238 | 0.0 | 3.2 | 0.00 | 0.03 | 0.03 | 71 | 1009.1 |
| 20260503200005 | 16 | 238 | 0.0 | 1.6 | 0.00 | 0.03 | 0.03 | 71 | 1008.9 |
| 20260503195403 | 16 | 218 | 0.0 | 1.6 | 0.00 | 0.03 | 0.03 | 71 | 1008.9 |
| 20260503194504 | 16 | 211 | 0.0 | 3.2 | 0.00 | 0.03 | 0.03 | 70 | 1008.8 |
| 20260503193608 | 16 | 211 | 0.0 | 4.8 | 0.00 | 0.03 | 0.03 | 70 | 1008.8 |
| 20260503192705 | 16 | 211 | 0.0 | 1.6 | 0.00 | 0.03 | 0.03 | 69 | 1008.8 |
| 20260503191805 | 16 | 211 | 0.0 | 1.6 | 0.00 | 0.03 | 0.03 | 69 | 1008.7 |
| 20260503190908 | 17 | 211 | 0.0 | 4.8 | 0.00 | 0.03 | 0.03 | 69 | 1008.5 |
| 20260503190003 | 17 | 224 | 0.0 | 4.8 | 0.00 | 0.03 | 0.03 | 69 | 1008.4 |
| 20260503185619 | 17 | 226 | 0.0 | 4.8 | 0.00 | 0.03 | 0.03 | 69 | 1008.4 |
| 20260503184716 | 17 | 226 | 0.0 | 4.8 | 0.00 | 0.03 | 0.03 | 68 | 1008.4 |
| 20260503183605 | 17 | 215 | 0.0 | 3.2 | 0.00 | 0.03 | 0.03 | 68 | 1008.4 |
| 20260503182915 | 17 | 201 | 0.0 | 1.6 | 0.00 | 0.03 | 0.03 | 67 | 1008.1 |
| 20260503181805 | 17 | 201 | 0.0 | 3.2 | 0.00 | 0.03 | 0.03 | 65 | 1008.1 |
| 20260503180905 | 17 | 200 | 0.0 | 1.6 | 0.00 | 0.03 | 0.03 | 65 | 1008.1 |
| 20260503180217 | 17 | 200 | 0.0 | 3.2 | 0.00 | 0.03 | 0.03 | 65 | 1008.1 |
| 20260503175403 | 18 | 197 | 0.0 | 3.2 | 0.00 | 0.03 | 0.03 | 64 | 1008.1 |
| 20260503174505 | 18 | 197 | 0.0 | 3.2 | 0.00 | 0.03 | 0.03 | 65 | 1008.1 |
| 20260503173814 | 18 | 198 | 0.0 | 3.2 | 0.00 | 0.03 | 0.03 | 64 | 1008.1 |
| 20260503172705 | 18 | 205 | 1.6 | 4.8 | 0.00 | 0.03 | 0.03 | 64 | 1008.1 |
| 20260503171803 | 18 | 214 | 1.6 | 3.2 | 0.00 | 0.03 | 0.03 | 65 | 1008.1 |
| 20260503170906 | 18 | 263 | 0.0 | 6.4 | 0.00 | 0.03 | 0.03 | 65 | 1008.1 |
| 20260503150903 | 20 | 270 | 1.6 | 6.4 | 0.00 | 0.05 | 0.03 | 61 | 1008.2 |
| 20260503150214 | 20 | 286 | 1.6 | 6.4 | 0.00 | 0.05 | 0.03 | 62 | 1008.1 |
| 20260503131113 | 20 | 231 | 3.2 | 14.5 | 0.00 | 0.05 | 0.03 | 63 | 1008.7 |
| 20260503110217 | 17 | 192 | 1.6 | 9.7 | 0.00 | 0.05 | 0.03 | 70 | 1008.8 |
| 20260503080903 | 16 | 248 | 1.6 | 6.4 | 0.00 | 0.05 | 0.03 | 76 | 1008.8 |
| 20260503072703 | 14 | 244 | 1.6 | 9.7 | 0.00 | 0.05 | 0.03 | 82 | 1008.8 |
| 20260503071805 | 13 | 231 | 0.0 | 3.2 | 0.00 | 0.05 | 0.03 | 83 | 1008.8 |
| 20260503070905 | 13 | 229 | 0.0 | 1.6 | 0.00 | 0.05 | 0.03 | 84 | 1008.8 |
| 20260503054503 | 12 | 213 | 0.0 | 4.8 | 0.00 | 0.05 | 0.03 | 90 | 1008.6 |
| 20260503053605 | 12 | 210 | 0.0 | 3.2 | 0.00 | 0.05 | 0.03 | 90 | 1008.6 |
| 20260503052703 | 12 | 211 | 0.0 | 3.2 | 0.00 | 0.05 | 0.03 | 90 | 1008.6 |
| 20260503051804 | 12 | 211 | 0.0 | 4.8 | 0.00 | 0.05 | 0.03 | 90 | 1008.5 |
| 20260503050903 | 12 | 210 | 0.0 | 3.2 | 0.00 | 0.05 | 0.03 | 90 | 1008.3 |
| 20260503050216 | 12 | 210 | 0.0 | 1.6 | 0.00 | 0.05 | 0.03 | 90 | 1008.3 |
| 20260503045405 | 12 | 210 | 0.0 | 1.6 | 0.00 | 0.05 | 0.03 | 90 | 1008.2 |
| 20260503044505 | 12 | 0 | 0.0 | 0.0 | 0.00 | 0.05 | 0.03 | 89 | 1008.1 |
| 20260503043603 | 12 | 0 | 0.0 | 0.0 | 0.00 | 0.05 | 0.03 | 89 | 1008.2 |
| 20260503042703 | 12 | 210 | 0.0 | 1.6 | 0.00 | 0.05 | 0.03 | 89 | 1008.2 |
| 20260503041803 | 12 | 210 | 0.0 | 1.6 | 0.00 | 0.05 | 0.03 | 89 | 1008.2 |
| 20260503040904 | 12 | 210 | 0.0 | 3.2 | 0.00 | 0.05 | 0.03 | 88 | 1008.2 |
| 20260503040003 | 13 | 210 | 0.0 | 1.6 | 0.00 | 0.05 | 0.03 | 88 | 1008.1 |
| 20260503035613 | 13 | 0 | 0.0 | 0.0 | 0.00 | 0.05 | 0.03 | 88 | 1008.2 |
| 20260503034505 | 13 | 210 | 0.0 | 1.6 | 0.00 | 0.05 | 0.03 | 88 | 1008.2 |
| 20260503033603 | 13 | 210 | 0.0 | 1.6 | 0.00 | 0.05 | 0.03 | 88 | 1008.3 |